SES-9

Last updated on Sun Apr 12 2026 00:02:54 GMT+0000 (Coordinated Universal Time)

1 41380U 16013A 26100.96132581 -.00000343 00000+0 00000+0 0 9990 2 41380 0.0172 262.8766 0001789 159.8141 230.8651 1.00267696 36763
UTC large
Height (km)
Speed (km/s)
/
Latitude / Longitude
Inclination (degrees)
Orbital Period (minutes)
Azimuth
Elevation
Range (km)
Doppler Factor

Next 0 passes for location: London (51.5072 / 0.1276)

Sorry there are no passes over London.
SES-9